Weather History for Hugo, OK

Change the Weather History Date:

Monday, December 10, 2012

  Actual Average Record
Temperature  
Mean Temperature 34 °F -  
Max Temperature 42 °F 57 °F 42 °F (2012)
Min Temperature 26 °F 37 °F 21 °F (2013)
Degree Days  
Heating Degree Days 31    
Moisture  
Dew Point 15 °F    
Average Humidity 48    
Maximum Humidity 88    
Minimum Humidity 31    
Precipitation  
Precipitation 0.00 in - - ()
Sea Level Pressure  
Sea Level Pressure 30.08 in    
Wind  
Wind Speed 13 mph (NNW)    
Max Wind Speed 22 mph    
Max Gust Speed 29 mph    
Visibility 10 miles    
Events Snow    
Averages and records for this station are not official NWS values.
T = Trace of Precipitation, MM = Missing Value Source: NWS Daily Summary

Daily Weather History Graph

Daily Weather History Graph

Search for Another Location

Airport:

Trip Planner

Search our weather history database for the weather conditions in past years. The results will help you decide how hot, cold, wet, or windy it might be!

Date:

Astronomy

Dec. 10, 2012 Rise Set
Actual Time 7:17 AM CST 5:13 PM CST
Civil Twilight 6:49 AM CST 5:40 PM CST
Nautical Twilight 6:18 AM CST 6:12 PM CST
Astronomical Twilight 5:47 AM CST 6:42 PM CST
Moon 4:06 AM CST (12/10) 2:59 PM CST (12/10)
Length of Visible Light 10h 51m
Length of Day
9h 56m
Waning Crescent, 10% of the Moon is Illuminated
Dec 10
Waning Crescent
Dec 13
New
Dec 19
First Quarter
Dec 28
Full
Jan 4
Last Quarter

Hourly Weather History & Observations

Time (CST) Temp. Windchill Dew Point Humidity Pressure Visibility Wind Dir Wind Speed Gust Speed Precip Events Conditions
12:15 AM 39.2 °F 30.5 °F 17.6 °F 42% 29.98 in 10.0 mi North 16.1 mph 28.8 mph N/A   Clear
12:35 AM 37.6 °F 28.1 °F 17.6 °F 44% 29.98 in 10.0 mi NNW 17.3 mph 23.0 mph N/A   Clear
12:55 AM 36.5 °F 28.2 °F 17.2 °F 46% 29.98 in 10.0 mi North 12.7 mph 19.6 mph N/A   Clear
1:15 AM 35.2 °F 23.8 °F 16.3 °F 46% 29.99 in 10.0 mi North 21.9 mph 28.8 mph N/A   Clear
1:35 AM 34.7 °F 25.1 °F 15.8 °F 46% 30.00 in 10.0 mi North 15.0 mph 20.7 mph N/A   Clear
1:55 AM 34.3 °F 24.6 °F 15.8 °F 47% 30.00 in 10.0 mi North 15.0 mph 19.6 mph N/A   Scattered Clouds
2:15 AM 33.8 °F 23.5 °F 14.2 °F 45% 30.02 in 10.0 mi NNW 16.1 mph 23.0 mph N/A   Scattered Clouds
2:55 AM 32.9 °F 22.8 °F 13.3 °F 44% 30.04 in 10.0 mi NNW 15.0 mph 21.9 mph N/A   Scattered Clouds
3:15 AM 33.3 °F 22.1 °F 13.1 °F 43% 30.05 in 10.0 mi NNW 18.4 mph 23.0 mph N/A   Overcast
3:35 AM 32.4 °F 20.3 °F 12.6 °F 44% 30.06 in 10.0 mi NNW 20.7 mph 26.5 mph N/A   Overcast
3:55 AM 32.2 °F 20.7 °F 12.7 °F 45% 30.07 in 10.0 mi NNW 18.4 mph 27.6 mph N/A   Overcast
4:15 AM 32.2 °F 20.7 °F 12.2 °F 44% 30.06 in 10.0 mi NNW 18.4 mph 24.2 mph N/A   Overcast
4:35 AM 32.2 °F 21.1 °F 12.2 °F 44% 30.06 in 10.0 mi NNW 17.3 mph 20.7 mph N/A   Overcast
4:55 AM 32.0 °F 20.5 °F 12.7 °F 45% 30.08 in 10.0 mi NNW 18.4 mph 25.3 mph N/A   Overcast
5:15 AM 32.0 °F 21.2 °F 12.6 °F 45% 30.07 in 10.0 mi NNW 16.1 mph 24.2 mph N/A   Overcast
5:35 AM 32.0 °F 21.2 °F 14.4 °F 48% 30.10 in 10.0 mi NNW 16.1 mph 23.0 mph N/A   Overcast
5:55 AM 28.8 °F 17.5 °F 21.7 °F 75% 30.10 in 4.0 mi NNW 15.0 mph 27.6 mph N/A Snow Light Snow
6:15 AM 27.3 °F 17.7 °F 24.1 °F 88% 30.10 in 2.5 mi NNW 10.4 mph - N/A Snow Light Snow
6:35 AM 27.1 °F 18.9 °F 23.2 °F 85% 30.10 in 10.0 mi NNW 8.1 mph - N/A   Mostly Cloudy
6:55 AM 26.6 °F 21.2 °F 23.0 °F 86% 30.10 in 10.0 mi NNW 4.6 mph - N/A   Mostly Cloudy
7:15 AM 26.1 °F 18.4 °F 22.6 °F 87% 30.10 in 10.0 mi NW 6.9 mph - N/A   Scattered Clouds
7:35 AM 26.2 °F 17.1 °F 21.9 °F 84% 30.10 in 10.0 mi NW 9.2 mph - N/A   Clear
7:55 AM 28.2 °F 14.8 °F 21.2 °F 75% 30.11 in 10.0 mi NNW 20.7 mph 25.3 mph N/A   Clear
8:15 AM 28.4 °F 18.0 °F 21.6 °F 76% 30.12 in 10.0 mi NNW 12.7 mph 18.4 mph N/A   Scattered Clouds
8:35 AM 29.1 °F 17.9 °F 20.5 °F 70% 30.12 in 10.0 mi NNW 15.0 mph 23.0 mph N/A   Clear
8:55 AM 29.7 °F 18.6 °F 19.0 °F 65% 30.13 in 10.0 mi NNW 15.0 mph 21.9 mph N/A   Clear
9:15 AM 30.2 °F 19.8 °F 18.1 °F 61% 30.13 in 10.0 mi NNW 13.8 mph 20.7 mph N/A   Clear
9:35 AM 31.1 °F 20.5 °F 18.1 °F 59% 30.13 in 10.0 mi NNW 15.0 mph 19.6 mph N/A   Clear
9:55 AM 31.8 °F 20.6 °F 17.1 °F 55% 30.13 in 10.0 mi North 17.3 mph 23.0 mph N/A   Clear
10:35 AM 32.7 °F 22.5 °F 16.0 °F 50% 30.13 in 10.0 mi North 15.0 mph 19.6 mph N/A   Clear
10:55 AM 34.3 °F 27.0 °F 16.5 °F 48% 30.12 in 10.0 mi NNW 9.2 mph 16.1 mph N/A   Clear
11:15 AM 35.1 °F 26.4 °F 16.3 °F 47% 30.11 in 10.0 mi NW 12.7 mph - N/A   Clear
11:35 AM 35.8 °F 26.9 °F 16.0 °F 45% 30.11 in 10.0 mi NNW 13.8 mph 21.9 mph N/A   Clear
11:55 AM 36.5 °F 28.2 °F 16.0 °F 43% 30.11 in 10.0 mi NNW 12.7 mph 19.6 mph N/A   Clear
12:15 PM 37.4 °F 29.8 °F 15.8 °F 41% 30.09 in 10.0 mi NW 11.5 mph 17.3 mph N/A   Clear
12:35 PM 38.8 °F 31.2 °F 15.8 °F 39% 30.09 in 10.0 mi NNW 12.7 mph 21.9 mph N/A   Clear
12:55 PM 39.4 °F 31.1 °F 15.1 °F 37% 30.07 in 10.0 mi North 15.0 mph 23.0 mph N/A   Clear
1:15 PM 40.3 °F 32.6 °F 15.8 °F 37% 30.07 in 10.0 mi North 13.8 mph 19.6 mph N/A   Clear
1:35 PM 40.5 °F 35.1 °F 15.3 °F 36% 30.06 in 10.0 mi NW 8.1 mph 19.6 mph N/A   Clear
1:55 PM 41.4 °F 34.3 °F 14.9 °F 34% 30.05 in 10.0 mi NNW 12.7 mph - N/A   Clear
2:15 PM 41.9 °F 36.9 °F 14.5 °F 33% 30.05 in 10.0 mi NNW 8.1 mph 16.1 mph N/A   Clear
2:35 PM 42.1 °F 37.1 °F 14.0 °F 32% 30.05 in 10.0 mi North 8.1 mph - N/A   Clear
2:55 PM 41.9 °F 35.4 °F 14.2 °F 33% 30.04 in 10.0 mi NNW 11.5 mph - N/A   Clear
3:15 PM 42.1 °F 35.7 °F 13.1 °F 31% 30.05 in 10.0 mi NNW 11.5 mph - N/A   Clear
3:35 PM 41.9 °F 36.3 °F 12.9 °F 31% 30.05 in 10.0 mi NNW 9.2 mph - N/A   Clear
3:55 PM 41.4 °F 34.7 °F 12.4 °F 31% 30.06 in 10.0 mi NNW 11.5 mph - N/A   Clear
4:15 PM 40.5 °F 34.6 °F 12.4 °F 32% 30.06 in 10.0 mi NNW 9.2 mph - N/A   Clear
4:35 PM 40.1 °F 34.7 °F 12.7 °F 33% 30.06 in 10.0 mi North 8.1 mph - N/A   Clear
4:55 PM 38.8 °F 33.2 °F 13.5 °F 35% 30.06 in 10.0 mi NW 8.1 mph - N/A   Clear
5:15 PM 37.2 °F 32.6 °F 13.1 °F 37% 30.06 in 10.0 mi NNW 5.8 mph - N/A   Clear
5:35 PM 35.4 °F 31.5 °F 13.1 °F 40% 30.07 in 10.0 mi NW 4.6 mph - N/A   Clear
5:55 PM 34.0 °F 29.8 °F 13.1 °F 42% 30.07 in 10.0 mi NW 4.6 mph - N/A   Clear
6:15 PM 33.6 °F 27.5 °F 13.3 °F 43% 30.07 in 10.0 mi NNW 6.9 mph - N/A   Clear
6:35 PM 32.9 °F 27.5 °F 13.1 °F 44% 30.08 in 10.0 mi NNW 5.8 mph - N/A   Clear
6:55 PM 32.2 °F 25.8 °F 12.9 °F 45% 30.09 in 10.0 mi NNW 6.9 mph - N/A   Clear
7:15 PM 32.0 °F 25.6 °F 12.7 °F 45% 30.09 in 10.0 mi NNW 6.9 mph - N/A   Clear
7:35 PM 31.6 °F 28.3 °F 12.6 °F 45% 30.10 in 10.0 mi NNW 3.5 mph - N/A   Clear
7:55 PM 31.5 °F 25.8 °F 12.4 °F 45% 30.10 in 10.0 mi NNW 5.8 mph - N/A   Clear
8:15 PM 30.6 °F 25.8 °F 11.8 °F 46% 30.10 in 10.0 mi NNW 4.6 mph - N/A   Clear
8:55 PM 29.7 °F 24.7 °F 11.3 °F 46% 30.10 in 10.0 mi NW 4.6 mph - N/A   Clear
9:15 PM 29.5 °F 24.5 °F 11.3 °F 47% 30.11 in 10.0 mi NNW 4.6 mph - N/A   Clear
9:35 PM 28.6 °F 22.4 °F 11.3 °F 48% 30.11 in 10.0 mi NW 5.8 mph - N/A   Clear
9:55 PM 28.2 °F 22.0 °F 11.1 °F 49% 30.11 in 10.0 mi NNW 5.8 mph - N/A   Clear
10:15 PM 29.3 °F 25.6 °F 10.8 °F 46% 30.12 in 10.0 mi NNW 3.5 mph - N/A   Clear
10:35 PM 29.8 °F 26.3 °F 10.4 °F 44% 30.13 in 10.0 mi NNW 3.5 mph - N/A   Clear
10:55 PM 28.0 °F 24.2 °F 10.4 °F 48% 30.13 in 10.0 mi NNW 3.5 mph - N/A   Clear
11:15 PM 27.3 °F 23.4 °F 10.2 °F 49% 30.13 in 10.0 mi NNW 3.5 mph - N/A   Clear
11:35 PM 28.4 °F 24.6 °F 10.2 °F 47% 30.13 in 10.0 mi NNW 3.5 mph - N/A   Clear
11:55 PM 27.9 °F 21.5 °F 10.2 °F 48% 30.13 in 10.0 mi NNW 5.8 mph - N/A   Clear